Time,TemperatureF,DewpointF,PressureIn,WindDirection,WindDirectionDegrees,WindSpeedMPH,WindSpeedGustMPH,Humidity,HourlyPrecipIn,Conditions,Clouds,dailyrainin,SoftwareType,DateUTC
2013-09-09 00:00:00,45.0,-99.9,-100.00,North,-999,-999.0,-999.0,-999,-99.99,,,-99.99,,2013-09-09 07:00:00,
2013-09-09 00:53:00,45.0,-99.9,-100.00,North,-999,-999.0,-999.0,-999,-99.99,,,-99.99,,2013-09-09 07:53:00,
2013-09-09 01:00:00,44.0,-99.9,-100.00,North,-999,-999.0,-999.0,-999,-99.99,,,-99.99,,2013-09-09 08:00:00,
2013-09-09 01:52:00,44.0,-99.9,-100.00,North,-999,-999.0,-999.0,-999,-99.99,,,-99.99,,2013-09-09 08:52:00,
2013-09-09 02:00:00,43.0,-99.9,-100.00,North,-999,-999.0,-999.0,-999,-99.99,,,0.00,,2013-09-09 09:00:00,
2013-09-09 02:54:00,43.0,-99.9,-100.00,North,-999,-999.0,-999.0,-999,-99.99,,,0.00,,2013-09-09 09:54:00,
2013-09-09 03:00:00,44.0,-99.9,-100.00,North,-999,-999.0,-999.0,-999,-99.99,,,0.00,,2013-09-09 10:00:00,
2013-09-09 03:53:00,44.0,-99.9,-100.00,North,-999,-999.0,-999.0,-999,-99.99,,,0.00,,2013-09-09 10:53:00,
2013-09-09 04:00:00,44.0,-99.9,-100.00,North,-999,-999.0,-999.0,-999,-99.99,,,0.00,,2013-09-09 11:00:00,
2013-09-09 04:52:00,44.0,-99.9,-100.00,North,-999,-999.0,-999.0,-999,-99.99,,,0.00,,2013-09-09 11:52:00,
2013-09-09 05:00:00,43.0,-99.9,-100.00,North,-999,-999.0,-999.0,-999,-99.99,,,0.00,,2013-09-09 12:00:00,
2013-09-09 05:52:00,43.0,-99.9,-100.00,North,-999,-999.0,-999.0,-999,-99.99,,,0.00,,2013-09-09 12:52:00,
2013-09-09 06:00:00,42.0,-99.9,-100.00,North,-999,-999.0,-999.0,-999,-99.99,,,0.00,,2013-09-09 13:00:00,
2013-09-09 06:52:00,42.0,-99.9,-100.00,North,-999,-999.0,-999.0,-999,-99.99,,,0.00,,2013-09-09 13:52:00,
2013-09-09 08:00:00,41.0,-99.9,-100.00,North,-999,-999.0,-999.0,-999,-99.99,,,0.00,,2013-09-09 15:00:00,
2013-09-09 08:54:00,41.0,-99.9,-100.00,North,-999,-999.0,-999.0,-999,-99.99,,,0.00,,2013-09-09 15:54:00,
2013-09-09 09:00:00,52.0,-99.9,-100.00,North,-999,-999.0,-999.0,-999,-99.99,,,1.18,,2013-09-09 16:00:00,
2013-09-09 09:54:00,52.0,-99.9,-100.00,North,-999,-999.0,-999.0,-999,-99.99,,,1.18,,2013-09-09 16:54:00,
2013-09-09 10:00:00,57.0,-99.9,-100.00,North,-999,-999.0,-999.0,-999,-99.99,,,1.18,,2013-09-09 17:00:00,
2013-09-09 10:53:00,57.0,-99.9,-100.00,North,-999,-999.0,-999.0,-999,-99.99,,,1.18,,2013-09-09 17:53:00,
2013-09-09 11:00:00,58.0,-99.9,-100.00,North,-999,-999.0,-999.0,-999,-99.99,,,1.18,,2013-09-09 18:00:00,
2013-09-09 11:52:00,58.0,-99.9,-100.00,North,-999,-999.0,-999.0,-999,-99.99,,,1.18,,2013-09-09 18:52:00,
2013-09-09 12:00:00,60.0,-99.9,-100.00,North,-999,-999.0,-999.0,-999,-99.99,,,1.18,,2013-09-09 19:00:00,
2013-09-09 12:52:00,60.0,-99.9,-100.00,North,-999,-999.0,-999.0,-999,-99.99,,,1.18,,2013-09-09 19:52:00,
2013-09-09 13:00:00,60.0,-99.9,-100.00,North,-999,-999.0,-999.0,-999,-99.99,,,-99.99,,2013-09-09 20:00:00,
2013-09-09 13:53:00,60.0,-99.9,-100.00,North,-999,-999.0,-999.0,-999,-99.99,,,-99.99,,2013-09-09 20:53:00,
2013-09-09 14:00:00,58.0,-99.9,-100.00,North,-999,-999.0,-999.0,-999,-99.99,,,1.19,,2013-09-09 21:00:00,
2013-09-09 14:54:00,58.0,-99.9,-100.00,North,-999,-999.0,-999.0,-999,-99.99,,,1.19,,2013-09-09 21:54:00,
2013-09-09 15:00:00,60.0,-99.9,-100.00,North,-999,-999.0,-999.0,-999,-99.99,,,1.19,,2013-09-09 22:00:00,
2013-09-09 15:54:00,60.0,-99.9,-100.00,North,-999,-999.0,-999.0,-999,-99.99,,,1.19,,2013-09-09 22:54:00,
2013-09-09 16:00:00,59.0,-99.9,-100.00,North,-999,-999.0,-999.0,-999,-99.99,,,1.19,,2013-09-09 23:00:00,
2013-09-09 16:53:00,59.0,-99.9,-100.00,North,-999,-999.0,-999.0,-999,-99.99,,,1.19,,2013-09-09 23:53:00,
2013-09-09 17:00:00,58.0,-99.9,-100.00,North,-999,-999.0,-999.0,-999,-99.99,,,1.19,,2013-09-10 00:00:00,
2013-09-09 17:52:00,58.0,-99.9,-100.00,North,-999,-999.0,-999.0,-999,-99.99,,,1.19,,2013-09-10 00:52:00,
2013-09-09 18:00:00,56.0,-99.9,-100.00,North,-999,-999.0,-999.0,-999,-99.99,,,1.18,,2013-09-10 01:00:00,
2013-09-09 18:53:00,56.0,-99.9,-100.00,North,-999,-999.0,-999.0,-999,-99.99,,,1.18,,2013-09-10 01:53:00,
2013-09-09 19:00:00,53.0,-99.9,-100.00,North,-999,-999.0,-999.0,-999,-99.99,,,1.18,,2013-09-10 02:00:00,
2013-09-09 19:52:00,53.0,-99.9,-100.00,North,-999,-999.0,-999.0,-999,-99.99,,,1.18,,2013-09-10 02:52:00,
2013-09-09 20:00:00,52.0,-99.9,-100.00,North,-999,-999.0,-999.0,-999,-99.99,,,1.19,,2013-09-10 03:00:00,
2013-09-09 20:55:00,52.0,-99.9,-100.00,North,-999,-999.0,-999.0,-999,-99.99,,,1.19,,2013-09-10 03:55:00,
2013-09-09 21:00:00,52.0,-99.9,-100.00,North,-999,-999.0,-999.0,-999,-99.99,,,1.19,,2013-09-10 04:00:00,
2013-09-09 21:53:00,52.0,-99.9,-100.00,North,-999,-999.0,-999.0,-999,-99.99,,,1.19,,2013-09-10 04:53:00,
2013-09-09 22:00:00,52.0,-99.9,-100.00,North,-999,-999.0,-999.0,-999,-99.99,,,1.18,,2013-09-10 05:00:00,
2013-09-09 22:53:00,52.0,-99.9,-100.00,North,-999,-999.0,-999.0,-999,-99.99,,,1.18,,2013-09-10 05:53:00,
2013-09-09 23:00:00,51.0,-99.9,-100.00,North,-999,-999.0,-999.0,-999,-99.99,,,1.18,,2013-09-10 06:00:00,
2013-09-09 23:52:00,51.0,-99.9,-100.00,North,-999,-999.0,-999.0,-999,-99.99,,,1.18,,2013-09-10 06:52:00,